Location: Dammartin
(48.9032°N, 1.6195°E)
Time: 03:59:15
(UTC+00:00)

Gblst 52 Del rocket - Visible Passes

Search period start: 11 November 2024 00:00
Search period end: 21 November 2024 00:00
Orbit: 805 x 1364 km, 51.5° (Epoch: 10 November)

Date Brightness Start Highest point End Pass type
(mag) Time Alt. Az. Time Alt. Az. Time Alt. Az.
11 Nov 5.8 18:28:18 10° WNW 18:34:30 41° SW 18:41:33 10° SSE visible
11 Nov 7.3 20:23:14 10° WSW 20:25:16 11° WSW 20:27:23 10° SW visible
12 Nov 5.4 17:36:08 10° WNW 17:42:26 55° SW 17:49:43 10° SE visible
12 Nov 7.0 19:29:03 10° W 19:33:31 18° SW 19:38:18 10° SSW visible
13 Nov 5.0 16:44:01 10° WNW 16:50:19 71° SSW 16:57:36 10° SE visible
13 Nov 6.6 18:36:12 10° W 18:41:38 26° SW 18:47:40 10° S visible
14 Nov 6.1 17:43:47 10° WNW 17:49:42 37° SW 17:56:22 10° SSE visible
15 Nov 5.6 16:51:33 10° WNW 16:57:40 50° SW 17:04:38 10° SE visible
15 Nov 7.3 18:44:53 10° W 18:48:37 15° SW 18:52:35 10° SSW visible
16 Nov 6.9 17:51:48 10° W 17:56:47 23° SW 18:02:16 10° S visible
17 Nov 6.5 16:59:17 10° WNW 17:04:52 32° SW 17:11:09 10° SSE visible
18 Nov 7.5 18:00:59 10° WSW 18:03:43 13° SW 18:06:35 10° SSW visible
19 Nov 7.4 17:07:28 10° W 17:11:56 20° SW 17:16:48 10° S visible
